EJU38VA LEMD-LFMN

Flight info

Callsign EJU38VA
Flight time 1h 20m
Altitude 38000
Route PINAR DCT SEGRE DCT BRITO DCT PISUS DCT PONEN DCT SEROX DCT VILAR DCT KARES DCT BISES DCT BCN DCT FEVIK DCT DALIN DCT PIVUS DCT DIBER DCT SOSUR DCT SOFFY DCT MRM DCT ABLAK
Aircraft A320/M-SDE2E3FGHIJ1RWXYZ/LB1

Departure

Time 2026-05-04 15:18
Airport Adolfo Suárez Madrid–Barajas Airport (LEMD)

Arrival

Time 2026-05-04 16:38
Airport Nice-Côte d'Azur Airport (LFMN)
Time Latitude Longitude Altitude Speed Heading
2026-05-04 14:47 40.46861 -3.56772 1968 ft 0 kts 327°
2026-05-04 15:06 40.46860 -3.56771 1968 ft 2 kts 327°
2026-05-04 15:07 40.46818 -3.56728 1971 ft 4 kts 315°
2026-05-04 15:07 40.46800 -3.56702 1971 ft 4 kts 311°
2026-05-04 15:07 40.46782 -3.56676 1969 ft 4 kts 318°
2026-05-04 15:07 40.46765 -3.56660 1965 ft 4 kts 337°
2026-05-04 15:08 40.46739 -3.56654 1964 ft 3 kts
2026-05-04 15:08 40.46731 -3.56654 1964 ft 0 kts
2026-05-04 15:11 40.46742 -3.56654 1964 ft 3 kts
2026-05-04 15:11 40.46766 -3.56653 1965 ft 5 kts
2026-05-04 15:11 40.46799 -3.56621 1965 ft 8 kts 65°
2026-05-04 15:12 40.46800 -3.56528 1965 ft 12 kts 93°
2026-05-04 15:12 40.46838 -3.56458 1965 ft 10 kts
2026-05-04 15:12 40.46897 -3.56454 1966 ft 7 kts
2026-05-04 15:12 40.46945 -3.56450 1967 ft 7 kts
2026-05-04 15:13 40.46993 -3.56448 1968 ft 8 kts 357°
2026-05-04 15:13 40.47048 -3.56458 1973 ft 8 kts 348°
2026-05-04 15:13 40.47105 -3.56480 1974 ft 9 kts 339°
2026-05-04 15:13 40.47160 -3.56517 1971 ft 9 kts 327°
2026-05-04 15:14 40.47210 -3.56567 1975 ft 9 kts 322°
2026-05-04 15:14 40.47261 -3.56618 1976 ft 9 kts 322°
2026-05-04 15:14 40.47313 -3.56673 1979 ft 12 kts 321°
2026-05-04 15:14 40.47392 -3.56757 1980 ft 17 kts 322°
2026-05-04 15:15 40.47491 -3.56858 1981 ft 19 kts 321°
2026-05-04 15:15 40.47597 -3.56967 1983 ft 20 kts 322°
2026-05-04 15:15 40.47705 -3.57075 1988 ft 19 kts 322°
2026-05-04 15:16 40.47908 -3.57279 1991 ft 12 kts 329°
2026-05-04 15:16 40.47969 -3.57259 1992 ft 9 kts 47°
2026-05-04 15:16 40.48027 -3.57134 1990 ft 5 kts 109°
2026-05-04 15:17 40.47998 -3.57099 1988 ft 1 kts 142°
2026-05-04 15:17 40.47749 -3.56850 1982 ft 82 kts 141°
2026-05-04 15:17 40.47128 -3.56211 1966 ft 142 kts 141°
2026-05-04 15:18 40.46232 -3.55289 2149 ft 171 kts 147°
2026-05-04 15:18 40.45411 -3.54211 2953 ft 169 kts 135°
2026-05-04 15:18 40.44641 -3.53011 3513 ft 175 kts 135°
2026-05-04 15:19 40.42928 -3.50632 4661 ft 182 kts 142°
2026-05-04 15:19 40.41944 -3.49448 4992 ft 203 kts 142°
2026-05-04 15:19 40.39647 -3.46692 5757 ft 237 kts 141°
2026-05-04 15:20 40.38432 -3.45205 6452 ft 240 kts 140°
2026-05-04 15:20 40.37213 -3.43700 7206 ft 241 kts 141°
2026-05-04 15:20 40.35930 -3.42288 7948 ft 242 kts 151°
2026-05-04 15:20 40.34413 -3.41156 8388 ft 259 kts 155°
2026-05-04 15:21 40.32835 -3.39938 9125 ft 268 kts 146°
2026-05-04 15:21 40.31524 -3.38167 9925 ft 276 kts 127°
2026-05-04 15:21 40.30460 -3.33289 11319 ft 290 kts 90°
2026-05-04 15:22 40.30503 -3.30601 11873 ft 301 kts 89°
2026-05-04 15:22 40.30807 -3.27856 12538 ft 309 kts 73°
2026-05-04 15:22 40.32911 -3.22934 13476 ft 314 kts 47°
2026-05-04 15:23 40.34347 -3.20750 14199 ft 318 kts 47°
2026-05-04 15:23 40.35778 -3.18526 14890 ft 321 kts 47°
2026-05-04 15:23 40.37226 -3.16264 15476 ft 329 kts 45°
2026-05-04 15:23 40.39009 -3.14283 15619 ft 346 kts 31°
2026-05-04 15:24 40.43172 -3.10496 16263 ft 375 kts 31°
2026-05-04 15:24 40.47515 -3.06561 17524 ft 383 kts 31°
2026-05-04 15:25 40.49719 -3.04550 18176 ft 388 kts 31°
2026-05-04 15:25 40.51938 -3.02516 18751 ft 391 kts 31°
2026-05-04 15:25 40.54175 -3.00458 19315 ft 394 kts 31°
2026-05-04 15:26 40.58698 -2.96296 20464 ft 400 kts 31°
2026-05-04 15:26 40.60985 -2.94193 21004 ft 403 kts 31°
2026-05-04 15:26 40.65612 -2.89949 22083 ft 408 kts 31°
2026-05-04 15:27 40.67947 -2.87802 22612 ft 411 kts 31°
2026-05-04 15:27 40.72666 -2.83445 23632 ft 417 kts 31°
2026-05-04 15:28 40.77449 -2.79027 24419 ft 423 kts 31°
2026-05-04 15:28 40.79876 -2.76786 24793 ft 427 kts 31°
2026-05-04 15:28 40.84782 -2.72245 25529 ft 434 kts 31°
2026-05-04 15:29 40.87265 -2.69944 25913 ft 437 kts 32°
2026-05-04 15:30 40.96559 -2.59246 27316 ft 458 kts 56°
2026-05-04 15:30 40.99656 -2.47229 28335 ft 469 kts 82°
2026-05-04 15:31 41.00742 -2.38665 29021 ft 475 kts 82°
2026-05-04 15:31 41.01295 -2.34338 29348 ft 478 kts 82°
2026-05-04 15:32 41.02957 -2.21194 30264 ft 487 kts 82°
2026-05-04 15:32 41.04059 -2.12311 30771 ft 491 kts 82°
2026-05-04 15:33 41.05165 -2.03331 31274 ft 496 kts 83°
2026-05-04 15:34 41.06833 -1.89786 32288 ft 497 kts 83°
2026-05-04 15:34 41.07385 -1.85271 32614 ft 497 kts 83°
2026-05-04 15:34 41.08480 -1.76227 33302 ft 497 kts 83°
2026-05-04 15:35 41.09572 -1.67173 33964 ft 497 kts 83°
2026-05-04 15:35 41.10118 -1.62650 34257 ft 497 kts 83°
2026-05-04 15:35 41.10663 -1.58125 34549 ft 497 kts 83°
2026-05-04 15:36 41.11741 -1.49083 35095 ft 496 kts 84°
2026-05-04 15:36 41.12274 -1.44561 35360 ft 496 kts 84°
2026-05-04 15:36 41.12800 -1.40050 35635 ft 495 kts 84°
2026-05-04 15:37 41.13323 -1.35541 35901 ft 494 kts 84°
2026-05-04 15:37 41.13846 -1.31036 36159 ft 494 kts 84°
2026-05-04 15:37 41.14368 -1.26538 36415 ft 493 kts 84°
2026-05-04 15:37 41.14889 -1.22046 36653 ft 493 kts 84°
2026-05-04 15:38 41.15411 -1.17550 36897 ft 493 kts 84°
2026-05-04 15:38 41.15931 -1.13063 37142 ft 492 kts 84°
2026-05-04 15:38 41.16445 -1.08580 37390 ft 491 kts 84°
2026-05-04 15:38 41.16954 -1.04103 37622 ft 490 kts 84°
2026-05-04 15:39 41.17458 -0.99688 37841 ft 490 kts 84°
2026-05-04 15:39 41.17980 -0.95146 37935 ft 492 kts 84°
2026-05-04 15:40 41.19504 -0.81705 37947 ft 502 kts 84°
2026-05-04 15:40 41.20532 -0.72539 37939 ft 503 kts 84°
2026-05-04 15:41 41.21566 -0.63285 37943 ft 511 kts 84°
2026-05-04 15:41 41.22601 -0.53908 37937 ft 514 kts 84°
2026-05-04 15:42 41.23622 -0.44506 37936 ft 515 kts 84°
2026-05-04 15:42 41.24643 -0.35086 37929 ft 515 kts 84°
2026-05-04 15:43 41.25665 -0.25656 37929 ft 516 kts 85°
2026-05-04 15:43 41.26676 -0.16218 37954 ft 517 kts 84°
2026-05-04 15:44 41.27685 -0.06722 37945 ft 519 kts 85°
2026-05-04 15:44 41.28678 0.02727 37901 ft 515 kts 85°
2026-05-04 15:45 41.29657 0.12163 37886 ft 516 kts 85°
2026-05-04 15:45 41.30472 0.20089 37884 ft 517 kts 85°
2026-05-04 15:46 41.31453 0.29570 37885 ft 518 kts 85°
2026-05-04 15:46 41.32416 0.39015 37902 ft 519 kts 85°
2026-05-04 15:47 41.33387 0.48600 37899 ft 520 kts 85°
2026-05-04 15:47 41.34357 0.58138 37906 ft 520 kts 84°
2026-05-04 15:48 41.35655 0.67554 37907 ft 521 kts 80°
2026-05-04 15:48 41.38014 0.81685 37916 ft 521 kts 80°
2026-05-04 15:49 41.39485 0.91117 37923 ft 520 kts 81°
2026-05-04 15:49 41.40873 1.00623 37927 ft 519 kts 82°
2026-05-04 15:50 41.42239 1.09998 37929 ft 519 kts 82°
2026-05-04 15:50 41.43632 1.19425 37930 ft 518 kts 82°
2026-05-04 15:51 41.45038 1.28909 37926 ft 518 kts 82°
2026-05-04 15:51 41.46421 1.38343 37923 ft 518 kts 82°
2026-05-04 15:52 41.47793 1.47779 37926 ft 519 kts 82°
2026-05-04 15:52 41.49155 1.57226 37926 ft 519 kts 82°
2026-05-04 15:53 41.50499 1.66622 37936 ft 519 kts 82°
2026-05-04 15:53 41.51845 1.76082 37943 ft 519 kts 82°
2026-05-04 15:54 41.53196 1.85546 37946 ft 519 kts 82°
2026-05-04 15:54 41.54534 1.95018 37948 ft 519 kts 83°
2026-05-04 15:55 41.55830 2.04342 37945 ft 519 kts 83°
2026-05-04 15:55 41.57148 2.13809 37945 ft 519 kts 83°
2026-05-04 15:56 41.58465 2.23282 37939 ft 519 kts 83°
2026-05-04 15:56 41.59764 2.32765 37935 ft 519 kts 83°
2026-05-04 15:57 41.61055 2.42247 37931 ft 519 kts 83°
2026-05-04 15:57 41.62349 2.51737 37932 ft 519 kts 83°
2026-05-04 15:58 41.63630 2.61231 37928 ft 519 kts 83°
2026-05-04 15:58 41.64895 2.70734 37925 ft 519 kts 83°
2026-05-04 15:59 41.66163 2.80248 37932 ft 520 kts 83°
2026-05-04 15:59 41.67428 2.89777 37929 ft 520 kts 83°
2026-05-04 16:00 41.68678 2.99323 37930 ft 521 kts 83°
2026-05-04 16:00 41.69915 3.08876 37926 ft 521 kts 83°
2026-05-04 16:01 41.71149 3.18438 37916 ft 522 kts 83°
2026-05-04 16:01 41.72384 3.28009 37911 ft 522 kts 83°
2026-05-04 16:02 41.74011 3.37496 37919 ft 527 kts 71°
2026-05-04 16:03 41.78452 3.51006 37921 ft 529 kts 67°
2026-05-04 16:03 41.81450 3.60016 37925 ft 529 kts 67°
2026-05-04 16:04 41.84428 3.69038 37927 ft 529 kts 68°
2026-05-04 16:04 41.88875 3.82583 37925 ft 529 kts 68°
2026-05-04 16:05 41.91829 3.91606 37926 ft 528 kts 68°
2026-05-04 16:06 41.96246 4.05161 37933 ft 528 kts 68°
2026-05-04 16:07 42.02110 4.23249 37936 ft 527 kts 68°
2026-05-04 16:08 42.08442 4.41000 37943 ft 526 kts 53°
2026-05-04 16:08 42.16173 4.51326 37942 ft 522 kts 39°
2026-05-04 16:09 42.21592 4.57836 37953 ft 521 kts 39°
2026-05-04 16:10 42.32287 4.70814 37966 ft 520 kts 40°
2026-05-04 16:11 42.43045 4.83877 37969 ft 519 kts 39°
2026-05-04 16:12 42.60028 5.01274 37965 ft 504 kts 14°
2026-05-04 16:13 42.73431 5.06623 37961 ft 503 kts 11°
2026-05-04 16:14 42.86880 5.11993 37728 ft 506 kts 11°
2026-05-04 16:15 42.97102 5.16058 35434 ft 508 kts 12°
2026-05-04 16:16 43.03901 5.18791 33840 ft 511 kts 12°
2026-05-04 16:16 43.14176 5.22980 31051 ft 516 kts 13°
2026-05-04 16:17 43.21065 5.25810 29054 ft 519 kts 14°
2026-05-04 16:18 43.31367 5.30039 26837 ft 499 kts 14°
2026-05-04 16:18 43.34663 5.31397 26294 ft 490 kts 14°
2026-05-04 16:19 43.43538 5.37858 24460 ft 476 kts 33°
2026-05-04 16:19 43.48034 5.44355 23268 ft 467 kts 59°
2026-05-04 16:20 43.50239 5.56909 21373 ft 445 kts 92°
2026-05-04 16:20 43.50278 5.65349 20219 ft 436 kts 92°
2026-05-04 16:21 43.50338 5.77656 18579 ft 422 kts 92°
2026-05-04 16:22 43.50366 5.85649 17462 ft 413 kts 92°
2026-05-04 16:22 43.50393 5.97223 16163 ft 394 kts 92°
2026-05-04 16:23 43.50406 6.08295 14968 ft 378 kts 92°
2026-05-04 16:24 43.50422 6.22524 13378 ft 366 kts 92°
2026-05-04 16:25 43.50424 6.29366 12634 ft 359 kts 92°
2026-05-04 16:26 43.50399 6.42218 12076 ft 314 kts 93°
2026-05-04 16:26 43.49694 6.49957 11370 ft 301 kts 101°
2026-05-04 16:27 43.49128 6.55618 10758 ft 296 kts 101°
2026-05-04 16:28 43.48259 6.63716 10280 ft 271 kts 102°
2026-05-04 16:28 43.47448 6.71034 9913 ft 245 kts 102°
2026-05-04 16:29 43.46448 6.79981 8395 ft 231 kts 102°
2026-05-04 16:30 43.45669 6.86448 7144 ft 227 kts 102°
2026-05-04 16:31 43.45361 6.90701 6338 ft 228 kts 79°
2026-05-04 16:31 43.47696 6.96463 4974 ft 228 kts 47°
2026-05-04 16:32 43.50967 7.00904 3905 ft 213 kts 47°
2026-05-04 16:33 43.52970 7.03645 3392 ft 186 kts 47°
2026-05-04 16:33 43.54669 7.05967 2906 ft 162 kts 47°
2026-05-04 16:34 43.56193 7.08059 2515 ft 146 kts 47°
2026-05-04 16:34 43.56891 7.09020 2332 ft 138 kts 47°
2026-05-04 16:35 43.58873 7.11749 1777 ft 132 kts 47°
2026-05-04 16:35 43.60827 7.14422 1261 ft 131 kts 47°
2026-05-04 16:36 43.61474 7.15308 1091 ft 130 kts 49°
2026-05-04 16:36 43.62733 7.17036 743 ft 125 kts 50°
2026-05-04 16:37 43.63959 7.18711 406 ft 122 kts 52°
2026-05-04 16:37 43.64557 7.19530 251 ft 120 kts 52°
2026-05-04 16:37 43.65736 7.21155 27 ft 112 kts 51°
2026-05-04 16:38 43.66270 7.21898 22 ft 21 kts 40°
2026-05-04 16:39 43.66539 7.22040 21 ft 11 kts 329°
2026-05-04 16:39 43.66627 7.21923 21 ft 5 kts 315°
2026-05-04 16:40 43.66598 7.21789 21 ft 12 kts 225°
2026-05-04 16:40 43.66464 7.21606 21 ft 15 kts 225°
2026-05-04 16:41 43.66312 7.21381 21 ft 17 kts 225°
2026-05-04 16:41 43.66059 7.21034 21 ft 17 kts 225°
2026-05-04 16:42 43.66033 7.20757 23 ft 9 kts 291°
2026-05-04 16:43 43.66046 7.20710 22 ft 0 kts 291°